Tracking 27112 objects as of 26-Mar-2023
HD Live streaming from Space Station
objects crossing your sky now

STARLINK-4348

Track STARLINK-4348 now!
10-day predictions
STARLINK-4348 is classified as:


NORAD ID: 53075
Int'l Code: 2022-077AJ
Perigee: 568.6 km
Apogee: 571.7 km
Inclination: 97.7 °
Period: 95.9 minutes
Semi major axis: 6941 km
RCS: Unknown
Launch date: July 11, 2022
Source: United States (US)
Launch site: AIR FORCE WESTERN TEST RANGE (AFWTR)
Your satellite tracking list
Your tracking list is empty




NASA's NSSDC Master Catalog

Two Line Element Set (TLE):
1 53075U 22077AJ  23085.09126698  .00000394  00000-0  35242-4 0  9993
2 53075  97.6530 267.3578 0002165  99.5929 260.5540 15.01258931 39523
Source of the keplerian elements: AFSPC